Tracking 31027 objects as of 19-Jul-2025
HD Live streaming from Space Station
objects crossing your sky now

STARLINK-31365

Track STARLINK-31365 now!
10-day predictions
STARLINK-31365 is classified as:


NORAD ID: 58973
Int'l Code: 2024-031J
Perigee: 481.7 km
Apogee: 483.1 km
Inclination: 53.2 °
Period: 94.1 minutes
Semi major axis: 6853 km
RCS: Unknown
Launch date: February 15, 2023
Source: United States (US)
Launch site: AIR FORCE WESTERN TEST RANGE (AFWTR)
Your satellite tracking list
STARLINK-6351
Track 1 satellite(s)




NASA's NSSDC Master Catalog

Two Line Element Set (TLE):
1 58973U 24031J   25199.47368357 -.00000734  00000-0 -12667-4 0  9993
2 58973  53.1608 304.6033 0001036 101.5744 258.5373 15.30188399 80679
Source of the keplerian elements: AFSPC